sat.trackr.live / text

‹ back to catalog

PHISAT 2

NORAD 60470 · 2024-149C

PAYLOAD ACTIVE UNKNOWN

§ Identity

Operator
Country
UK
Launch date
2024-08-16
Launch site
AFWTR
Launch vehicle
Mass (kg)
RCS (m²)

External: N2YO · Heavens-Above · Gunter

§ Orbital elements

Epoch: 2026-09-22T10:55:44.324832Z

Period
93.98 min
Inclination
97.3703°
Eccentricity
0.0000579
Mean motion
15.32208796 rev/d
Perigee alt
468.8 km
Apogee alt
469.6 km
Semi-major
6,847.4 km
B*
1.8652e-4
RAAN
344.1740°
Arg perigee
180.1515°
Mean anomaly
179.9727°
Rev number
11,688

§ Raw data

PHISAT 21 60470U 24149C   26265.45537413  .00005722  00000+0  18652-3 0  99902 60470  97.3703 344.1740 0000579 180.1515 179.9727 15.32208796116882

JSON: /api/v1/satellites/60470 · /tle

For live sub-satellite position, see the globe view (requires WebGL).

§ Visibility from observer

Set your observer location to see the next 7 days of passes ≥ 10°. The values pass through the URL so the page stays shareable.

No JS? Fill the form by hand. The geolocation button needs JavaScript.